Lid_Strength_Index
5 6 6 6 5 5 5 5 5 5 5 5 4 4 4 3 8 12 13 9 7 3 3 10 10 11 10 11 11 10 14 16 14 13 12 10 12 10 9 9 10 8 8 7 9
6 6 6 6 6 5 5 5 5 5 5 5 5 4 4 3 12 14 9 6 5 4 8 11 12 12 13 12 12 14 16 15 13 13 13 13 13 12 12 12 12 11 10 10 10
7 7 6 6 6 6 6 6 5 6 6 6 6 5 4 4 14 14 8 6 6 6 8 10 11 12 13 13 13 14 17 14 14 14 15 14 14 13 14 14 13 12 10 10 11
6 5 5 5 5 5 4 4 3 4 5 6 5 4 6 10 17 14 8 7 7 10 9 10 13 14 15 15 14 16 15 15 14 14 15 15 14 15 14 14 12 12 11 11 11
6 5 5 5 5 3 2 2 3 4 5 5 4 4 12 17 17 12 8 10 12 11 11 11 13 14 16 15 14 15 15 14 13 14 14 14 15 14 14 12 12 13 12 12 12
6 6 6 5 4 3 2 2 3 4 3 3 3 8 15 20 12 13 13 12 13 12 12 11 12 11 14 14 15 15 14 14 14 15 14 16 15 14 13 13 14 13 13 13 12
6 6 6 5 4 3 2 2 2 2 3 4 6 12 15 18 14 14 13 13 13 13 12 11 11 13 14 15 15 14 16 15 16 16 16 15 15 16 15 14 14 15 14 13 12
6 6 6 5 3 4 4 4 2 4 4 6 7 14 18 12 13 13 13 13 12 11 11 11 12 15 17 16 16 18 18 20 17 17 16 17 19 16 15 16 16 15 15 14 13
5 6 6 6 5 4 5 6 6 6 7 9 14 16 18 12 14 14 14 14 13 12 13 12 14 18 18 20 20 21 24 22 21 18 19 19 22 17 16 17 17 17 16 16 17
5 6 6 6 5 4 4 4 7 9 11 12 13 16 16 17 14 14 13 13 14 13 15 17 18 20 20 22 25 25 25 23 24 21 20 21 21 19 16 17 19 18 18 17 18
5 5 5 6 5 5 8 12 15 16 15 17 17 17 16 14 14 14 13 15 15 16 21 19 22 24 24 22 22 23 24 25 23 20 21 22 22 18 17 17 18 17 18 18 18
5 6 6 6 6 6 11 14 14 15 18 15 16 16 15 15 17 15 13 18 18 21 19 21 24 21 19 19 21 22 24 25 22 19 20 21 21 18 17 17 17 17 18 18 18
5 6 6 6 7 10 13 14 12 14 18 17 16 16 16 15 18 17 15 17 20 21 21 23 22 18 19 21 21 22 23 23 23 20 20 21 21 18 16 16 16 16 16 17 18
5 6 6 7 10 14 14 12 11 13 23 19 17 16 15 15 18 15 15 17 19 22 21 21 19 19 20 21 20 23 20 21 22 22 25 21 26 21 18 18 17 17 17 17 17
5 6 7 8 14 15 13 12 11 13 27 18 18 14 15 18 18 17 15 16 20 20 21 22 21 21 22 21 19 21 19 20 21 22 23 22 25 21 18 20 19 17 17 17 17
5 6 8 12 14 14 12 12 13 21 28 24 18 18 18 17 18 17 17 16 17 19 19 21 19 20 21 19 19 18 20 20 21 22 28 22 23 24 21 20 18 17 16 16 16
6 7 10 11 16 12 11 14 21 25 22 25 22 18 19 20 19 19 20 21 24 27 25 22 21 20 19 21 20 20 24 28 29 30 27 22 24 23 18 17 17 17 16 15 14
7 7 10 12 13 12 14 18 26 28 28 19 19 19 21 20 21 20 21 24 22 23 27 27 26 22 19 21 24 22 25 29 32 29 28 22 24 21 17 16 16 16 16 15 14
7 14 14 14 13 14 16 26 25 24 21 20 20 24 27 21 22 22 24 26 25 24 29 30 26 21 19 19 21 24 27 23 32 27 29 25 23 19 16 17 17 16 16 16 15
14 16 15 14 14 15 21 25 26 18 18 19 24 23 31 29 25 26 25 25 22 19 23 24 29 21 19 20 20 23 21 28 28 37 35 27 26 24 20 18 17 17 17 16 15
16 17 15 14 15 19 24 30 23 16 17 19 22 27 24 27 26 29 26 22 23 20 20 27 27 24 21 24 24 24 25 25 25 27 31 31 27 24 20 18 18 17 16 16 15
16 20 15 15 20 34 30 24 16 18 17 18 19 20 23 23 27 28 27 23 20 20 22 23 27 30 26 22 21 23 26 25 30 30 27 27 28 18 18 17 17 16 15 15 15
21 20 14 15 24 31 26 21 17 18 18 19 19 19 20 21 27 22 21 19 19 20 24 24 29 33 27 26 23 27 22 21 23 24 29 33 27 18 17 19 17 16 16 15 14
20 20 19 20 21 23 27 23 22 17 18 18 20 19 21 22 21 27 21 18 17 17 15 17 29 29 28 26 28 30 27 21 27 32 27 26 24 19 19 19 18 16 16 16 15
21 26 26 27 25 28 24 21 21 21 20 18 20 22 25 29 26 25 21 20 18 16 17 21 30 31 25 23 23 24 25 24 25 23 28 22 23 20 20 20 18 16 15 15 14
22 23 27 29 24 26 24 23 21 20 22 23 25 20 22 27 23 25 24 22 22 22 23 25 31 32 32 23 23 26 23 23 23 22 23 22 23 18 17 17 19 16 15 15 14
16 19 20 22 28 26 25 21 20 19 19 19 21 21 21 20 21 21 19 19 20 23 23 26 30 33 34 26 27 31 26 24 23 26 23 25 21 18 19 18 17 16 15 15 14